Бараниха

Россия / Чукотский автономный округ     68°29′58″N   168°15′54″E
темп.,
°C
ветер,
м/с
пор.,
м/с
влажн.,
%
обл.,
%
осадки,
мм/ч
давл.,
гПа
погр.,
м
28 октября, чт
чт2800:00−21юз229799 0.3 102127
03:00−21ююз229797 0.1 102133
06:00−23ююз3296100 0.1 102231
09:00−24ююз3395100 0.0 102223
12:00−22ююз329383 0.0 102133
15:00−24ююз339284 0.0 102022
18:00−24ю339371 0.0 102031
21:00−23ю439469 0.0 101933
29 октября, пт
пт2900:00−24ю439662 0.0 101831
03:00−25ю439527 0.0 101730
06:00−25ю439555 0.0 101629
09:00−25ю439424 0.0 101628
12:00−23ю339013 0.0 101535
15:00−24ю33895 0.0 101424
18:00−25ю33895 0.0 101422
21:00−26ю43905 0.0 101423
30 октября, сб
сб3000:00−26ю33905 0.0 101422
03:00−27ю33905 0.0 101318
06:00−28ю33905 0.0 101414
09:00−29ююз32919 0.0 101411
12:00−28ююз229128 0.0 101411
15:00−27ююз229460 0.0 101410
18:00−27ююз229699 0.0 101510
21:00−26ююз229689 0.0 101610
31 октября, вс
вс3100:00−24ююз219593 0.0 101615
03:00−23юз119688 0.0 101611
06:00−23ююз119993 0.1 101611
09:00−22юз119999 0.1 101710
12:00−20зюз119988 0.2 101734
15:00−22юз11100100 0.1 10189
18:00−22юз1199100 0.1 10199
21:00−22ююз2199100 0.1 102011
1 ноября, пн
пн100:00−23ююз2299100 0.1 102112
03:00−25ююз2299100 0.1 102211
06:00−26юз2110097 0.1 10229
09:00−26юз11100100 0.0 10239
12:00−25юз1110094 0.1 10239
15:00−26зюз11100100 0.0 10239
18:00−23сз11100100 0.1 102317
21:00−23сз1110097 0.1 102410